Simultaneous Nadir Overpasses (SNOs) Predictions

Prediction of SNOs between GOES-14 and AQUA Satellite Orbit:

Table of predicted SNOs for the next 14.0 days since TLE Epoch: 12/21/2024
Index Date Time (GOES-14) GOES-14 Lat,Lon AQUA Lat,Lon Distance(km) Time Diff (sec)
1 12/22/2024 09:26:54 0.17,-108.42 -0.43,-105.70 309.13 80
2 12/22/2024 21:49:13 -0.19,-108.35 -0.64,-110.45 238.80 80
3 12/24/2024 21:27:44 -0.18,-108.34 0.37,-105.84 283.98 80
4 12/25/2024 09:49:55 0.21,-108.40 0.67,-110.56 246.41 80
5 12/27/2024 09:28:23 0.20,-108.38 -0.29,-105.94 276.60 80
6 12/27/2024 21:50:43 -0.22,-108.31 -0.74,-110.69 271.31 80
7 12/29/2024 21:29:10 -0.22,-108.29 0.24,-106.07 251.80 80
8 12/30/2024 09:51:22 0.24,-108.35 0.75,-110.80 278.53 80
9 01/01/2025 09:29:48 0.24,-108.32 -0.24,-106.17 244.77 80
10 01/01/2025 21:52:07 -0.26,-108.25 -0.81,-110.92 303.03 80
11 01/03/2025 21:30:31 -0.25,-108.23 0.14,-106.28 220.87 80
